700 AM CST FRI JAN 22 2021

LAZ040-048-061>063-065-066-069-221400-
SOUTHEAST LOUISIANA
  
CITY           SKY/WX    TMP DP  RH WIND       PRES   REMARKS
N.O. INTL ARPT LGT RAIN  63  60  90 CALM      29.95R FOG              
N.O. LAKEFRONT LGT RAIN  60  57  89 NW7       29.96R FOG              
RESERVE*       HVY RAIN  63  60  92 N3        29.97R                  
SLIDELL        LGT RAIN  63  61  93 CALM      29.94R FOG              
BATON ROUGE    LGT RAIN  61  60  97 E3        29.95R FOG              
BOOTHVILLE*    MOSUNNY   63  62  97 SW7       29.95R                  
BELLE CHASSE*  LGT RAIN  63  63 100 N3        29.94R FOG              
BOGALUSA*      CLOUDY    61  59  92 CALM      29.95R                  
GALLIANO*      CLOUDY   N/A N/A N/A SW8       29.93S                  
NEW ROADS*     HVY RAIN  59  59 100 CALM      29.95R                  
GONZALES*      HVY RAIN  62  62  97 CALM      29.95R                  
HAMMOND*       RAIN      59  59 100 CALM      29.95R                  
HOUMA*         CLOUDY    64  64 100 W3        29.94R FOG              
PORT FOURCHON* NOT AVBL